Location: Central Coast
(33.3208°S, 151.2336°E)
Time: 20:33:19
(UTC+11:00)

N. Korean satellite - Pass Details

Date: 15 October 2017
Orbit: 459 x 517 km, 97.2° (Epoch: 16 October)

Event Time Altitude Azimuth Distance (km) Brightness Sun altitude
Rises 19:29:27 0° 165° (SSE) 2,669 10.3 -5.2°
Reaches altitude 10° 19:31:36 10° 162° (SSE) 1,770 9.4 -5.7°
Maximum altitude 19:35:23 63° 80° (E) 584 6.7 -6.4°
Drops below altitude 10° 19:39:05 10° 358° (N) 1,723 9.2 -7.2°
Sets 19:41:09 0° 355° (N) 2,590 10.2 -7.6°
